Location: Brno
(49.2000°N, 16.6330°E)
Time: 15:17:37
(UTC+02:00)

ISS - Pass Details

Date: 23 April 2026
Orbit: 414 x 424 km, 51.6° (Epoch: 18 May)

Event Time Altitude Azimuth Distance (km) Brightness Sun altitude
Exits shadow 03:10:22 12° 123° (ESE) 1,393 -1.1 -21.2°
Drops below altitude 10° 03:11:08 10° 110° (ESE) 1,498 -0.8 -21.1°
Sets 03:14:14 0° 79° (E) 2,371 0.8 -20.8°
